Back to catalog

FENGYUN 1C DEB

LostSSO
NORAD 31240·DEBRIS·🇨🇳 China

Launched May 10, 1999 from Taiyuan Satellite Launch Center

Loading…

Next Passes (next 24 hours)

TLE

StaleSource: Space-Track

Epoch: Aug 8, 2026, 06:32 UTC

1 31240U 99025BLW 26220.27261519  .00000430  00000-0  26577-3 0  9997
2 31240  98.7548 223.1673 0046673  62.5031 311.0189 14.09889952254582

Track FENGYUN 1C DEB in real time with AllMySat

Download on the App Store